Time,TemperatureF,DewpointF,PressureIn,WindDirection,WindDirectionDegrees,WindSpeedMPH,WindSpeedGustMPH,Humidity,HourlyPrecipIn,Conditions,Clouds,dailyrainin,SoftwareType,DateUTC
2013-02-18 00:00:00,26.8,20.6,29.65,ESE,105,4.0,5.0,77,0.00,,SKC,0.00,VWS V14.01,2013-02-18 06:00:00,
2013-02-18 00:05:00,26.8,20.6,29.65,ESE,113,8.0,8.0,77,0.00,,SKC,0.00,VWS V14.01,2013-02-18 06:05:00,
2013-02-18 00:10:00,26.9,21.0,29.64,ESE,122,5.0,11.0,78,0.00,,SKC,0.00,VWS V14.01,2013-02-18 06:10:00,
2013-02-18 00:15:00,27.0,20.8,29.64,SE,129,9.0,12.0,77,0.00,,SKC,0.00,VWS V14.01,2013-02-18 06:15:00,
2013-02-18 00:20:00,27.0,20.8,29.64,SE,125,2.0,12.0,77,0.00,,SKC,0.00,VWS V14.01,2013-02-18 06:20:00,
2013-02-18 00:25:00,27.0,20.8,29.63,ESE,120,5.0,12.0,77,0.00,,SKC,0.00,VWS V14.01,2013-02-18 06:25:00,
2013-02-18 00:30:00,27.1,20.9,29.63,SE,126,6.0,7.0,77,0.00,,SKC,0.00,VWS V14.01,2013-02-18 06:30:00,
2013-02-18 00:35:00,27.1,20.9,29.63,ESE,116,9.0,11.0,77,0.00,,SKC,0.00,VWS V14.01,2013-02-18 06:35:00,
2013-02-18 00:40:00,27.1,20.9,29.63,SE,138,2.0,11.0,77,0.00,,SKC,0.00,VWS V14.01,2013-02-18 06:40:00,
2013-02-18 00:45:00,27.1,20.9,29.62,ESE,123,6.0,11.0,77,0.00,,SKC,0.00,VWS V14.01,2013-02-18 06:45:00,
2013-02-18 00:50:00,27.1,21.2,29.62,ESE,107,5.0,11.0,78,0.00,,SKC,0.00,VWS V14.01,2013-02-18 06:50:00,
2013-02-18 00:55:00,27.1,21.2,29.62,SE,130,7.0,11.0,78,0.00,,SKC,0.00,VWS V14.01,2013-02-18 06:55:00,
2013-02-18 01:00:00,27.1,21.2,29.62,ESE,121,5.0,11.0,78,0.00,,SKC,0.00,VWS V14.01,2013-02-18 07:00:00,
2013-02-18 01:05:00,27.1,21.2,29.62,ESE,113,4.0,11.0,78,0.00,,SKC,0.00,VWS V14.01,2013-02-18 07:05:00,
2013-02-18 01:10:00,27.1,21.2,29.62,SE,124,5.0,12.0,78,0.00,,SKC,0.00,VWS V14.01,2013-02-18 07:10:00,
2013-02-18 01:15:00,27.1,21.2,29.61,ESE,114,2.0,15.0,78,0.00,,SKC,0.00,VWS V14.01,2013-02-18 07:15:00,
2013-02-18 01:20:00,27.0,21.1,29.61,ESE,112,7.0,15.0,78,0.00,,SKC,0.00,VWS V14.01,2013-02-18 07:20:00,
2013-02-18 01:25:00,27.1,21.2,29.60,ESE,107,5.0,15.0,78,0.00,,SKC,0.00,VWS V14.01,2013-02-18 07:25:00,
2013-02-18 01:30:00,27.1,21.2,29.59,East,82,8.0,8.0,78,0.00,,SKC,0.00,VWS V14.01,2013-02-18 07:30:00,
2013-02-18 01:35:00,27.2,21.3,29.60,East,95,8.0,11.0,78,0.00,,SKC,0.00,VWS V14.01,2013-02-18 07:35:00,
2013-02-18 01:40:00,27.2,21.3,29.60,ESE,103,2.0,11.0,78,0.00,,SKC,0.00,VWS V14.01,2013-02-18 07:40:00,
2013-02-18 01:45:00,27.2,21.3,29.59,ESE,119,7.0,11.0,78,0.00,,SKC,0.00,VWS V14.01,2013-02-18 07:45:00,
2013-02-18 01:50:00,27.1,21.2,29.59,ESE,112,5.0,11.0,78,0.00,,SKC,0.00,VWS V14.01,2013-02-18 07:50:00,
2013-02-18 01:55:00,27.0,21.1,29.58,East,91,9.0,11.0,78,0.00,,SKC,0.00,VWS V14.01,2013-02-18 07:55:00,
2013-02-18 02:00:00,27.0,21.1,29.58,SE,124,4.0,6.0,78,0.00,,SKC,0.00,VWS V14.01,2013-02-18 08:00:00,
2013-02-18 02:05:00,26.8,20.9,29.58,SE,133,6.0,7.0,78,0.00,,SKC,0.00,VWS V14.01,2013-02-18 08:05:00,
2013-02-18 02:10:00,26.6,20.7,29.58,East,92,5.0,8.0,78,0.00,,SKC,0.00,VWS V14.01,2013-02-18 08:10:00,
2013-02-18 02:15:00,26.4,20.8,29.58,East,100,5.0,10.0,79,0.00,,SKC,0.00,VWS V14.01,2013-02-18 08:15:00,
2013-02-18 02:20:00,26.3,20.7,29.57,ESE,104,5.0,10.0,79,0.00,,SKC,0.00,VWS V14.01,2013-02-18 08:20:00,
2013-02-18 02:25:00,26.3,20.7,29.57,East,96,4.0,10.0,79,0.00,,SKC,0.00,VWS V14.01,2013-02-18 08:25:00,
2013-02-18 02:30:00,26.1,20.5,29.56,ESE,110,2.0,5.0,79,0.00,,SKC,0.00,VWS V14.01,2013-02-18 08:30:00,
2013-02-18 02:35:00,26.0,20.4,29.57,ESE,123,5.0,7.0,79,0.00,,SKC,0.00,VWS V14.01,2013-02-18 08:35:00,
2013-02-18 02:40:00,25.9,20.6,29.56,East,87,1.0,9.0,80,0.00,,SKC,0.00,VWS V14.01,2013-02-18 08:40:00,
2013-02-18 02:45:00,25.8,20.5,29.57,ESE,109,2.0,9.0,80,0.00,,SKC,0.00,VWS V14.01,2013-02-18 08:45:00,
2013-02-18 02:50:00,25.8,20.5,29.56,East,98,1.0,9.0,80,0.00,,SKC,0.00,VWS V14.01,2013-02-18 08:50:00,
2013-02-18 02:55:00,25.7,20.4,29.56,East,98,4.0,9.0,80,0.00,,SKC,0.00,VWS V14.01,2013-02-18 08:55:00,
2013-02-18 03:00:00,25.6,20.3,29.56,ESE,117,6.0,6.0,80,0.00,,SKC,0.00,VWS V14.01,2013-02-18 09:00:00,
2013-02-18 03:05:00,25.7,20.7,29.56,ESE,112,2.0,6.0,81,0.00,,SKC,0.00,VWS V14.01,2013-02-18 09:05:00,
2013-02-18 03:10:00,25.6,20.6,29.55,ESE,107,4.0,7.0,81,0.00,,SKC,0.00,VWS V14.01,2013-02-18 09:10:00,
2013-02-18 03:15:00,25.7,20.7,29.56,ESE,104,5.0,7.0,81,0.00,,SKC,0.00,VWS V14.01,2013-02-18 09:15:00,
2013-02-18 03:20:00,25.7,20.7,29.55,SE,132,4.0,8.0,81,0.00,,SKC,0.00,VWS V14.01,2013-02-18 09:20:00,
2013-02-18 03:25:00,25.6,20.6,29.55,SE,125,8.0,8.0,81,0.00,,SKC,0.00,VWS V14.01,2013-02-18 09:25:00,
2013-02-18 03:30:00,25.5,20.5,29.56,SE,137,6.0,6.0,81,0.00,,SKC,0.00,VWS V14.01,2013-02-18 09:30:00,
2013-02-18 03:35:00,25.5,20.5,29.55,ESE,114,2.0,7.0,81,0.00,,SKC,0.00,VWS V14.01,2013-02-18 09:35:00,
2013-02-18 03:40:00,25.5,20.5,29.55,East,101,4.0,7.0,81,0.00,,SKC,0.00,VWS V14.01,2013-02-18 09:40:00,
2013-02-18 03:45:00,25.4,20.4,29.54,ESE,105,0.0,7.0,81,0.00,,SKC,0.00,VWS V14.01,2013-02-18 09:45:00,
2013-02-18 03:50:00,25.3,20.3,29.54,ESE,105,0.0,7.0,81,0.00,,SKC,0.00,VWS V14.01,2013-02-18 09:50:00,
2013-02-18 03:55:00,25.2,20.5,29.54,ESE,116,2.0,7.0,82,0.00,,SKC,0.00,VWS V14.01,2013-02-18 09:55:00,
2013-02-18 04:00:00,25.2,20.5,29.53,SE,130,4.0,6.0,82,0.00,,SKC,0.00,VWS V14.01,2013-02-18 10:00:00,
2013-02-18 04:05:00,25.2,20.5,29.53,SE,124,4.0,7.0,82,0.00,,SKC,0.00,VWS V14.01,2013-02-18 10:05:00,
2013-02-18 04:10:00,25.4,21.0,29.53,ESE,113,2.0,7.0,83,0.00,,SKC,0.00,VWS V14.01,2013-02-18 10:10:00,
2013-02-18 04:15:00,25.5,21.1,29.53,ESE,117,5.0,7.0,83,0.00,,SKC,0.00,VWS V14.01,2013-02-18 10:15:00,
2013-02-18 04:20:00,25.6,21.2,29.52,SE,124,2.0,7.0,83,0.00,,SKC,0.00,VWS V14.01,2013-02-18 10:20:00,
2013-02-18 04:25:00,25.7,21.0,29.52,ESE,110,0.0,7.0,82,0.00,,SKC,0.00,VWS V14.01,2013-02-18 10:25:00,
2013-02-18 04:30:00,25.8,21.4,29.52,ESE,109,2.0,4.0,83,0.00,,SKC,0.00,VWS V14.01,2013-02-18 10:30:00,
2013-02-18 04:35:00,25.9,21.5,29.52,ESE,115,2.0,7.0,83,0.00,,SKC,0.00,VWS V14.01,2013-02-18 10:35:00,
2013-02-18 04:40:00,26.0,21.3,29.52,ESE,107,0.0,7.0,82,0.00,,SKC,0.00,VWS V14.01,2013-02-18 10:40:00,
2013-02-18 04:45:00,26.0,21.3,29.52,ESE,107,0.0,7.0,82,0.00,,SKC,0.00,VWS V14.01,2013-02-18 10:45:00,
2013-02-18 04:50:00,25.9,21.2,29.53,ESE,107,0.0,7.0,82,0.00,,SKC,0.00,VWS V14.01,2013-02-18 10:50:00,
2013-02-18 04:55:00,25.8,21.1,29.53,ESE,107,0.0,7.0,82,0.00,,SKC,0.00,VWS V14.01,2013-02-18 10:55:00,
2013-02-18 05:00:00,25.8,21.4,29.53,ESE,107,0.0,1.0,83,0.00,,SKC,0.00,VWS V14.01,2013-02-18 11:00:00,
2013-02-18 05:05:00,25.8,21.4,29.52,SE,134,2.0,5.0,83,0.00,,SKC,0.00,VWS V14.01,2013-02-18 11:05:00,
2013-02-18 05:10:00,25.8,21.4,29.53,SE,134,0.0,5.0,83,0.00,,SKC,0.00,VWS V14.01,2013-02-18 11:10:00,
2013-02-18 05:15:00,25.8,21.4,29.53,SE,134,0.0,5.0,83,0.00,,SKC,0.00,VWS V14.01,2013-02-18 11:15:00,
2013-02-18 05:20:00,25.7,21.3,29.53,SE,134,0.0,5.0,83,0.00,,SKC,0.00,VWS V14.01,2013-02-18 11:20:00,
2013-02-18 05:25:00,25.7,21.5,29.52,ESE,115,0.0,5.0,84,0.00,,SKC,0.00,VWS V14.01,2013-02-18 11:25:00,
2013-02-18 05:30:00,25.7,21.5,29.52,ESE,115,2.0,2.0,84,0.00,,SKC,0.00,VWS V14.01,2013-02-18 11:30:00,
2013-02-18 05:35:00,25.7,21.5,29.52,ESE,115,0.0,2.0,84,0.00,,SKC,0.00,VWS V14.01,2013-02-18 11:35:00,
2013-02-18 05:40:00,25.7,21.8,29.52,SE,129,0.0,7.0,85,0.00,,SKC,0.00,VWS V14.01,2013-02-18 11:40:00,
2013-02-18 05:45:00,25.8,21.6,29.51,SE,129,0.0,7.0,84,0.00,,SKC,0.00,VWS V14.01,2013-02-18 11:45:00,
2013-02-18 05:50:00,25.5,21.4,29.52,SE,129,0.0,7.0,84,0.00,,SKC,0.00,VWS V14.01,2013-02-18 11:50:00,
2013-02-18 05:55:00,25.3,21.1,29.52,SE,129,0.0,7.0,84,0.00,,SKC,0.00,VWS V14.01,2013-02-18 11:55:00,
2013-02-18 06:00:00,25.1,21.2,29.52,SE,126,0.0,0.0,85,0.00,,SKC,0.00,VWS V14.01,2013-02-18 12:00:00,
2013-02-18 06:05:00,25.1,21.2,29.53,SE,126,0.0,0.0,85,0.00,,SKC,0.00,VWS V14.01,2013-02-18 12:05:00,
2013-02-18 06:10:00,25.1,21.5,29.52,SE,126,0.0,0.0,86,0.00,,SKC,0.00,VWS V14.01,2013-02-18 12:10:00,
2013-02-18 06:15:00,25.1,21.5,29.52,SE,126,0.0,0.0,86,0.00,,SKC,0.00,VWS V14.01,2013-02-18 12:15:00,
2013-02-18 06:20:00,25.2,21.6,29.52,SE,126,0.0,0.0,86,0.00,,SKC,0.00,VWS V14.01,2013-02-18 12:20:00,
2013-02-18 06:25:00,25.3,22.0,29.51,SE,126,0.0,1.0,87,0.00,,SKC,0.00,VWS V14.01,2013-02-18 12:25:00,
2013-02-18 06:30:00,25.4,21.8,29.52,SE,126,0.0,0.0,86,0.00,,SKC,0.00,VWS V14.01,2013-02-18 12:30:00,
2013-02-18 06:35:00,25.4,21.8,29.52,SE,126,0.0,0.0,86,0.00,,SKC,0.00,VWS V14.01,2013-02-18 12:35:00,
2013-02-18 06:40:00,25.5,21.9,29.52,SE,126,0.0,0.0,86,0.00,,SKC,0.00,VWS V14.01,2013-02-18 12:40:00,
2013-02-18 06:45:00,25.4,21.5,29.53,SE,126,0.0,0.0,85,0.00,,SKC,0.00,VWS V14.01,2013-02-18 12:45:00,
2013-02-18 06:50:00,25.3,21.7,29.53,SE,126,0.0,0.0,86,0.00,,SKC,0.00,VWS V14.01,2013-02-18 12:50:00,
2013-02-18 06:55:00,25.2,21.6,29.52,SE,126,0.0,0.0,86,0.00,,SKC,0.00,VWS V14.01,2013-02-18 12:55:00,
2013-02-18 07:00:00,25.2,21.6,29.52,SE,126,0.0,0.0,86,0.00,,SKC,0.00,VWS V14.01,2013-02-18 13:00:00,
2013-02-18 07:05:00,25.1,21.8,29.52,SE,126,0.0,0.0,87,0.00,,SKC,0.00,VWS V14.01,2013-02-18 13:05:00,
2013-02-18 07:10:00,25.2,21.9,29.51,SE,126,2.0,4.0,87,0.00,,SKC,0.00,VWS V14.01,2013-02-18 13:10:00,
2013-02-18 07:15:00,25.5,22.2,29.51,SE,125,0.0,4.0,87,0.00,,SKC,0.00,VWS V14.01,2013-02-18 13:15:00,
2013-02-18 07:20:00,25.7,22.4,29.51,SE,125,0.0,4.0,87,0.00,,SKC,0.00,VWS V14.01,2013-02-18 13:20:00,
2013-02-18 07:25:00,25.8,22.5,29.51,SE,125,0.0,4.0,87,0.00,,SKC,0.00,VWS V14.01,2013-02-18 13:25:00,
2013-02-18 07:30:00,25.8,22.5,29.52,SE,125,0.0,0.0,87,0.00,,SKC,0.00,VWS V14.01,2013-02-18 13:30:00,
2013-02-18 07:35:00,25.8,22.5,29.51,SE,125,0.0,0.0,87,0.00,,SKC,0.00,VWS V14.01,2013-02-18 13:35:00,
2013-02-18 07:40:00,25.8,22.5,29.51,SE,125,0.0,0.0,87,0.00,,SKC,0.00,VWS V14.01,2013-02-18 13:40:00,
2013-02-18 07:45:00,25.9,22.8,29.51,SE,125,0.0,0.0,88,0.00,,SKC,0.00,VWS V14.01,2013-02-18 13:45:00,
2013-02-18 07:50:00,25.9,22.6,29.51,SE,125,0.0,0.0,87,0.00,,SKC,0.00,VWS V14.01,2013-02-18 13:50:00,
2013-02-18 07:55:00,26.0,22.9,29.51,SE,125,0.0,0.0,88,0.00,,SKC,0.00,VWS V14.01,2013-02-18 13:55:00,
2013-02-18 08:00:00,26.1,23.0,29.51,SE,125,0.0,1.0,88,0.00,,SKC,0.00,VWS V14.01,2013-02-18 14:00:00,
2013-02-18 08:05:00,26.3,23.2,29.51,SE,125,0.0,1.0,88,0.00,,SKC,0.00,VWS V14.01,2013-02-18 14:05:00,
2013-02-18 08:10:00,26.6,23.3,29.51,SE,125,0.0,1.0,87,0.00,,SKC,0.00,VWS V14.01,2013-02-18 14:10:00,
2013-02-18 08:15:00,26.9,23.6,29.52,SE,125,0.0,1.0,87,0.00,,SKC,0.00,VWS V14.01,2013-02-18 14:15:00,
2013-02-18 08:20:00,27.1,23.8,29.52,SE,125,0.0,1.0,87,0.00,,SKC,0.00,VWS V14.01,2013-02-18 14:20:00,
2013-02-18 08:25:00,27.3,23.7,29.52,SE,125,0.0,2.0,86,0.00,,SKC,0.00,VWS V14.01,2013-02-18 14:25:00,
2013-02-18 08:30:00,27.5,23.9,29.51,SE,125,0.0,0.0,86,0.00,,SKC,0.00,VWS V14.01,2013-02-18 14:30:00,
2013-02-18 08:35:00,27.7,24.1,29.52,SE,125,0.0,2.0,86,0.00,,SKC,0.00,VWS V14.01,2013-02-18 14:35:00,
2013-02-18 08:40:00,27.9,24.0,29.52,SE,125,0.0,2.0,85,0.00,,SKC,0.00,VWS V14.01,2013-02-18 14:40:00,
2013-02-18 08:45:00,28.0,24.1,29.52,SE,125,0.0,2.0,85,0.00,,SKC,0.00,VWS V14.01,2013-02-18 14:45:00,
2013-02-18 08:50:00,28.2,24.3,29.51,SE,125,0.0,2.0,85,0.00,,SKC,0.00,VWS V14.01,2013-02-18 14:50:00,
2013-02-18 08:55:00,28.3,24.4,29.52,SE,125,0.0,2.0,85,0.00,,SKC,0.00,VWS V14.01,2013-02-18 14:55:00,
2013-02-18 09:00:00,28.4,24.5,29.53,SE,125,0.0,0.0,85,0.00,,SKC,0.00,VWS V14.01,2013-02-18 15:00:00,
2013-02-18 09:05:00,28.5,24.6,29.52,SE,125,0.0,0.0,85,0.00,,SKC,0.00,VWS V14.01,2013-02-18 15:05:00,
2013-02-18 09:10:00,28.7,24.8,29.53,SE,125,0.0,1.0,85,0.00,,SKC,0.00,VWS V14.01,2013-02-18 15:10:00,
2013-02-18 09:15:00,28.8,24.9,29.53,WSW,247,1.0,3.0,85,0.00,,SKC,0.00,VWS V14.01,2013-02-18 15:15:00,
2013-02-18 09:20:00,28.9,25.0,29.53,WSW,248,2.0,4.0,85,0.00,,SKC,0.00,VWS V14.01,2013-02-18 15:20:00,
2013-02-18 09:25:00,29.1,25.2,29.53,WSW,243,0.0,4.0,85,0.00,,SKC,0.00,VWS V14.01,2013-02-18 15:25:00,
2013-02-18 09:30:00,29.3,25.4,29.53,West,267,0.0,0.0,85,0.00,,SKC,0.00,VWS V14.01,2013-02-18 15:30:00,
2013-02-18 09:35:00,29.4,25.5,29.53,West,275,2.0,5.0,85,0.00,,SKC,0.00,VWS V14.01,2013-02-18 15:35:00,
2013-02-18 09:40:00,29.6,25.6,29.53,West,260,0.0,5.0,85,0.00,,SKC,0.00,VWS V14.01,2013-02-18 15:40:00,
2013-02-18 09:45:00,29.7,25.8,29.53,SW,217,2.0,7.0,85,0.00,,SKC,0.00,VWS V14.01,2013-02-18 15:45:00,
2013-02-18 09:50:00,29.9,26.0,29.53,WSW,254,4.0,7.0,85,0.00,,SKC,0.00,VWS V14.01,2013-02-18 15:50:00,
2013-02-18 09:55:00,30.1,26.4,29.53,WSW,253,2.0,7.0,86,0.00,,SKC,0.00,VWS V14.01,2013-02-18 15:55:00,
2013-02-18 10:00:00,30.2,26.5,29.53,WSW,244,2.0,4.0,86,0.00,,SKC,0.00,VWS V14.01,2013-02-18 16:00:00,
2013-02-18 10:05:00,30.3,26.6,29.53,West,263,6.0,8.0,86,0.00,,SKC,0.00,VWS V14.01,2013-02-18 16:05:00,
2013-02-18 10:10:00,30.4,26.7,29.53,WSW,257,4.0,8.0,86,0.00,,SKC,0.00,VWS V14.01,2013-02-18 16:10:00,
2013-02-18 10:15:00,30.5,26.8,29.53,West,259,2.0,8.0,86,0.00,,SKC,0.00,VWS V14.01,2013-02-18 16:15:00,
2013-02-18 10:20:00,30.7,27.3,29.53,WNW,295,0.0,8.0,87,0.00,,SKC,0.00,VWS V14.01,2013-02-18 16:20:00,
2013-02-18 10:25:00,30.9,27.5,29.54,WSW,245,2.0,8.0,87,0.00,,SKC,0.00,VWS V14.01,2013-02-18 16:25:00,
2013-02-18 10:30:00,31.0,27.6,29.53,West,265,2.0,2.0,87,0.00,,SKC,0.00,VWS V14.01,2013-02-18 16:30:00,
2013-02-18 10:35:00,31.2,27.8,29.54,NNW,335,4.0,4.0,87,0.00,,SKC,0.00,VWS V14.01,2013-02-18 16:35:00,
2013-02-18 10:40:00,31.3,28.2,29.54,WNW,291,4.0,5.0,88,0.00,,SKC,0.00,VWS V14.01,2013-02-18 16:40:00,
2013-02-18 10:45:00,31.4,28.3,29.54,WNW,298,2.0,11.0,88,0.00,,SKC,0.00,VWS V14.01,2013-02-18 16:45:00,
2013-02-18 10:50:00,31.4,28.5,29.54,NW,304,1.0,11.0,89,0.00,,SKC,0.00,VWS V14.01,2013-02-18 16:50:00,
2013-02-18 10:55:00,31.4,28.5,29.53,NW,304,1.0,11.0,89,0.00,,SKC,0.00,VWS V14.01,2013-02-18 16:55:00,
2013-02-18 11:00:00,31.3,28.7,29.53,WNW,292,2.0,6.0,90,0.00,,SKC,0.00,VWS V14.01,2013-02-18 17:00:00,
2013-02-18 11:05:00,31.4,28.5,29.54,NW,308,2.0,7.0,89,0.00,,SKC,0.00,VWS V14.01,2013-02-18 17:05:00,
2013-02-18 11:10:00,31.4,28.5,29.54,West,269,6.0,7.0,89,0.00,,SKC,0.00,VWS V14.01,2013-02-18 17:10:00,
2013-02-18 11:15:00,31.5,28.6,29.54,WNW,302,2.0,7.0,89,0.00,,SKC,0.00,VWS V14.01,2013-02-18 17:15:00,
2013-02-18 11:20:00,31.5,28.4,29.54,WNW,301,0.0,12.0,88,0.00,,SKC,0.00,VWS V14.01,2013-02-18 17:20:00,
2013-02-18 11:25:00,31.5,28.4,29.54,SW,235,8.0,14.0,88,0.00,,SKC,0.00,VWS V14.01,2013-02-18 17:25:00,
2013-02-18 11:30:00,31.4,28.0,29.55,WNW,290,6.0,7.0,87,0.00,,SKC,0.00,VWS V14.01,2013-02-18 17:30:00,
2013-02-18 11:35:00,31.3,27.9,29.55,West,274,7.0,7.0,87,0.00,,SKC,0.00,VWS V14.01,2013-02-18 17:35:00,
2013-02-18 11:40:00,31.3,27.9,29.55,NW,323,2.0,8.0,87,0.00,,SKC,0.00,VWS V14.01,2013-02-18 17:40:00,
2013-02-18 11:45:00,31.3,27.6,29.55,WSW,257,4.0,8.0,86,0.00,,SKC,0.00,VWS V14.01,2013-02-18 17:45:00,
2013-02-18 11:50:00,31.3,27.3,29.55,SW,223,7.0,10.0,85,0.00,,SKC,0.00,VWS V14.01,2013-02-18 17:50:00,
2013-02-18 11:55:00,31.0,26.2,29.55,WSW,249,7.0,15.0,82,0.00,,SKC,0.00,VWS V14.01,2013-02-18 17:55:00,
2013-02-18 12:00:00,30.7,25.6,29.55,WSW,253,5.0,8.0,81,0.00,,SKC,0.00,VWS V14.01,2013-02-18 18:00:00,
2013-02-18 12:05:00,30.6,25.5,29.55,WNW,298,0.0,9.0,81,0.00,,SKC,0.00,VWS V14.01,2013-02-18 18:05:00,
2013-02-18 12:10:00,30.6,25.5,29.55,West,278,4.0,13.0,81,0.00,,SKC,0.00,VWS V14.01,2013-02-18 18:10:00,
2013-02-18 12:15:00,30.4,25.0,29.55,WNW,298,4.0,14.0,80,0.00,,SKC,0.00,VWS V14.01,2013-02-18 18:15:00,
2013-02-18 12:20:00,30.1,24.4,29.55,NW,315,6.0,14.0,79,0.00,,SKC,0.00,VWS V14.01,2013-02-18 18:20:00,
2013-02-18 12:25:00,29.8,24.1,29.55,NW,309,6.0,14.0,79,0.00,,SKC,0.00,VWS V14.01,2013-02-18 18:25:00,
2013-02-18 12:31:00,29.7,24.0,29.55,WNW,292,5.0,8.0,79,0.00,,SKC,0.00,VWS V14.01,2013-02-18 18:31:00,
2013-02-18 12:36:00,29.5,23.2,29.56,WNW,296,6.0,13.0,77,0.00,,SKC,0.00,VWS V14.01,2013-02-18 18:36:00,
2013-02-18 12:41:00,29.1,22.8,29.56,NW,311,8.0,13.0,77,0.00,,SKC,0.00,VWS V14.01,2013-02-18 18:41:00,
2013-02-18 12:46:00,28.3,22.0,29.56,West,265,3.0,16.0,77,0.00,,SKC,0.00,VWS V14.01,2013-02-18 18:46:00,
2013-02-18 12:51:00,27.9,21.9,29.56,WNW,298,5.0,16.0,78,0.00,,SKC,0.00,VWS V14.01,2013-02-18 18:51:00,
2013-02-18 12:56:00,27.5,21.2,29.56,NNW,340,6.0,16.0,77,0.00,,SKC,0.00,VWS V14.01,2013-02-18 18:56:00,
2013-02-18 13:01:00,27.1,21.2,29.56,WNW,286,4.0,8.0,78,0.00,,SKC,0.00,VWS V14.01,2013-02-18 19:01:00,
2013-02-18 13:06:00,27.1,21.2,29.56,WNW,286,2.0,8.0,78,0.00,,SKC,0.00,VWS V14.01,2013-02-18 19:06:00,
2013-02-18 13:11:00,27.3,21.4,29.56,WNW,284,7.0,11.0,78,0.00,,SKC,0.00,VWS V14.01,2013-02-18 19:11:00,
2013-02-18 13:16:00,27.0,20.5,29.56,WNW,289,5.0,12.0,76,0.00,,SKC,0.00,VWS V14.01,2013-02-18 19:16:00,
2013-02-18 13:21:00,26.7,20.2,29.56,NW,309,5.0,15.0,76,0.00,,SKC,0.00,VWS V14.01,2013-02-18 19:21:00,
2013-02-18 13:26:00,26.3,19.5,29.56,WSW,244,7.0,17.0,75,0.00,,SKC,0.00,VWS V14.01,2013-02-18 19:26:00,
2013-02-18 13:31:00,26.0,19.5,29.56,NW,313,4.0,11.0,76,0.00,,SKC,0.00,VWS V14.01,2013-02-18 19:31:00,
2013-02-18 13:36:00,25.9,19.7,29.56,WNW,300,9.0,12.0,77,0.00,,SKC,0.00,VWS V14.01,2013-02-18 19:36:00,
2013-02-18 13:41:00,26.1,19.9,29.57,WNW,292,7.0,12.0,77,0.00,,SKC,0.00,VWS V14.01,2013-02-18 19:41:00,
2013-02-18 13:46:00,26.1,19.3,29.57,West,265,5.0,12.0,75,0.00,,SKC,0.00,VWS V14.01,2013-02-18 19:46:00,
2013-02-18 13:51:00,26.1,19.6,29.58,WNW,303,4.0,12.0,76,0.00,,SKC,0.00,VWS V14.01,2013-02-18 19:51:00,
2013-02-18 13:56:00,25.7,18.6,29.57,NW,315,4.0,15.0,74,0.00,,SKC,0.00,VWS V14.01,2013-02-18 19:56:00,
2013-02-18 14:01:00,25.5,18.4,29.57,NW,305,6.0,13.0,74,0.00,,SKC,0.00,VWS V14.01,2013-02-18 20:01:00,
2013-02-18 14:06:00,25.0,18.2,29.58,West,277,4.0,13.0,75,0.00,,SKC,0.00,VWS V14.01,2013-02-18 20:06:00,
2013-02-18 14:11:00,24.7,17.6,29.58,West,277,9.0,13.0,74,0.00,,SKC,0.00,VWS V14.01,2013-02-18 20:11:00,
2013-02-18 14:16:00,24.4,17.3,29.58,West,275,8.0,13.0,74,0.00,,SKC,0.00,VWS V14.01,2013-02-18 20:16:00,
2013-02-18 14:21:00,24.0,16.9,29.59,NW,313,5.0,13.0,74,0.00,,SKC,0.00,VWS V14.01,2013-02-18 20:21:00,
2013-02-18 14:26:00,23.9,16.8,29.59,WNW,302,7.0,13.0,74,0.00,,SKC,0.00,VWS V14.01,2013-02-18 20:26:00,
2013-02-18 14:31:00,23.6,16.2,29.59,WSW,251,10.0,13.0,73,0.00,,SKC,0.00,VWS V14.01,2013-02-18 20:31:00,
2013-02-18 14:36:00,23.4,16.4,29.60,WNW,300,4.0,18.0,74,0.00,,SKC,0.00,VWS V14.01,2013-02-18 20:36:00,
2013-02-18 14:41:00,23.3,16.6,29.60,WNW,293,5.0,18.0,75,0.00,,SKC,0.00,VWS V14.01,2013-02-18 20:41:00,
2013-02-18 14:47:00,23.1,16.4,29.61,SW,226,5.0,18.0,75,0.00,,SKC,0.00,VWS V14.01,2013-02-18 20:47:00,
2013-02-18 14:52:00,22.8,15.8,29.61,West,279,8.0,18.0,74,0.00,,SKC,0.00,VWS V14.01,2013-02-18 20:52:00,
2013-02-18 14:57:00,22.5,15.8,29.61,WNW,300,12.0,18.0,75,0.00,,SKC,0.00,VWS V14.01,2013-02-18 20:57:00,
2013-02-18 15:02:00,22.4,15.7,29.61,NW,304,5.0,12.0,75,0.00,,SKC,0.00,VWS V14.01,2013-02-18 21:02:00,
2013-02-18 15:07:00,22.2,15.2,29.61,WNW,293,4.0,12.0,74,0.00,,SKC,0.00,VWS V14.01,2013-02-18 21:07:00,
2013-02-18 15:12:00,22.1,15.1,29.61,West,273,2.0,12.0,74,0.00,,SKC,0.00,VWS V14.01,2013-02-18 21:12:00,
2013-02-18 15:17:00,21.8,15.1,29.62,West,275,4.0,14.0,75,0.00,,SKC,0.00,VWS V14.01,2013-02-18 21:17:00,
2013-02-18 15:22:00,21.7,15.0,29.62,WNW,302,4.0,14.0,75,0.00,,SKC,0.00,VWS V14.01,2013-02-18 21:22:00,
2013-02-18 15:27:00,21.6,14.9,29.62,WSW,257,5.0,14.0,75,0.00,,SKC,0.00,VWS V14.01,2013-02-18 21:27:00,
2013-02-18 15:32:00,21.4,14.4,29.62,WNW,285,1.0,12.0,74,0.00,,SKC,0.00,VWS V14.01,2013-02-18 21:32:00,
2013-02-18 15:37:00,21.1,14.1,29.63,WSW,248,8.0,12.0,74,0.00,,SKC,0.00,VWS V14.01,2013-02-18 21:37:00,
2013-02-18 15:42:00,20.9,13.9,29.62,West,271,2.0,12.0,74,0.00,,SKC,0.00,VWS V14.01,2013-02-18 21:42:00,
2013-02-18 15:47:00,20.8,14.1,29.63,WNW,290,2.0,12.0,75,0.00,,SKC,0.00,VWS V14.01,2013-02-18 21:47:00,
2013-02-18 15:52:00,20.7,14.0,29.63,NW,304,4.0,12.0,75,0.00,,SKC,0.00,VWS V14.01,2013-02-18 21:52:00,
2013-02-18 15:57:00,20.6,13.9,29.63,NW,315,7.0,13.0,75,0.00,,SKC,0.00,VWS V14.01,2013-02-18 21:57:00,
2013-02-18 16:02:00,20.4,13.8,29.64,WNW,290,2.0,8.0,75,0.00,,SKC,0.00,VWS V14.01,2013-02-18 22:02:00,
2013-02-18 16:07:00,20.3,13.7,29.64,WNW,296,6.0,12.0,75,0.00,,SKC,0.00,VWS V14.01,2013-02-18 22:07:00,
2013-02-18 16:12:00,20.2,13.9,29.64,WNW,291,0.0,12.0,76,0.00,,SKC,0.00,VWS V14.01,2013-02-18 22:12:00,
2013-02-18 16:17:00,20.1,13.5,29.65,West,271,6.0,14.0,75,0.00,,SKC,0.00,VWS V14.01,2013-02-18 22:17:00,
2013-02-18 16:22:00,20.0,13.4,29.65,West,276,4.0,14.0,75,0.00,,SKC,0.00,VWS V14.01,2013-02-18 22:22:00,
2013-02-18 16:27:00,19.9,13.3,29.65,West,263,3.0,14.0,75,0.00,,SKC,0.00,VWS V14.01,2013-02-18 22:27:00,
2013-02-18 16:32:00,19.8,13.5,29.65,West,277,4.0,8.0,76,0.00,,SKC,0.00,VWS V14.01,2013-02-18 22:32:00,
2013-02-18 16:37:00,19.8,13.5,29.65,WNW,286,4.0,12.0,76,0.00,,SKC,0.00,VWS V14.01,2013-02-18 22:37:00,
2013-02-18 16:42:00,19.8,13.5,29.65,West,271,1.0,12.0,76,0.00,,SKC,0.00,VWS V14.01,2013-02-18 22:42:00,
2013-02-18 16:47:00,19.7,13.4,29.66,West,272,4.0,12.0,76,0.00,,SKC,0.00,VWS V14.01,2013-02-18 22:47:00,
2013-02-18 16:52:00,19.7,13.7,29.66,WNW,284,2.0,12.0,77,0.00,,SKC,0.00,VWS V14.01,2013-02-18 22:52:00,
2013-02-18 16:57:00,19.8,13.8,29.66,WNW,288,0.0,12.0,77,0.00,,SKC,0.00,VWS V14.01,2013-02-18 22:57:00,
2013-02-18 17:02:00,19.8,13.5,29.66,WNW,302,4.0,9.0,76,0.00,,SKC,0.00,VWS V14.01,2013-02-18 23:02:00,
2013-02-18 17:07:00,19.7,13.7,29.66,West,281,0.0,9.0,77,0.00,,SKC,0.00,VWS V14.01,2013-02-18 23:07:00,
2013-02-18 17:12:00,19.7,13.4,29.66,West,261,5.0,12.0,76,0.00,,SKC,0.00,VWS V14.01,2013-02-18 23:12:00,
2013-02-18 17:17:00,19.4,12.8,29.67,WNW,293,1.0,12.0,75,0.00,,SKC,0.00,VWS V14.01,2013-02-18 23:17:00,
2013-02-18 17:22:00,19.2,12.6,29.67,WNW,294,6.0,12.0,75,0.00,,SKC,0.00,VWS V14.01,2013-02-18 23:22:00,
2013-02-18 17:27:00,19.1,12.5,29.67,WNW,300,4.0,12.0,75,0.00,,SKC,0.00,VWS V14.01,2013-02-18 23:27:00,
2013-02-18 17:32:00,19.0,12.4,29.68,WNW,300,4.0,8.0,75,0.00,,SKC,0.00,VWS V14.01,2013-02-18 23:32:00,
2013-02-18 17:37:00,18.9,12.6,29.68,WNW,287,0.0,8.0,76,0.00,,SKC,0.00,VWS V14.01,2013-02-18 23:37:00,
2013-02-18 17:42:00,18.8,12.2,29.69,NW,312,6.0,9.0,75,0.00,,SKC,0.00,VWS V14.01,2013-02-18 23:42:00,
2013-02-18 17:47:00,18.5,11.9,29.69,NW,306,4.0,9.0,75,0.00,,SKC,0.00,VWS V14.01,2013-02-18 23:47:00,
2013-02-18 17:52:00,18.3,11.7,29.69,NW,308,4.0,9.0,75,0.00,,SKC,0.00,VWS V14.01,2013-02-18 23:52:00,
2013-02-18 17:57:00,18.2,11.6,29.69,WNW,286,4.0,9.0,75,0.00,,SKC,0.00,VWS V14.01,2013-02-18 23:57:00,
2013-02-18 18:02:00,18.1,11.5,29.70,West,261,5.0,7.0,75,0.00,,SKC,0.00,VWS V14.01,2013-02-19 00:02:00,
2013-02-18 18:07:00,18.0,11.4,29.70,WNW,301,4.0,9.0,75,0.00,,SKC,0.00,VWS V14.01,2013-02-19 00:07:00,
2013-02-18 18:12:00,17.8,10.9,29.70,West,270,4.0,12.0,74,0.00,,SKC,0.00,VWS V14.01,2013-02-19 00:12:00,
2013-02-18 18:17:00,17.7,10.8,29.70,WNW,302,9.0,12.0,74,0.00,,SKC,0.00,VWS V14.01,2013-02-19 00:17:00,
2013-02-18 18:22:00,17.5,10.6,29.70,West,271,2.0,12.0,74,0.00,,SKC,0.00,VWS V14.01,2013-02-19 00:22:00,
2013-02-18 18:27:00,17.4,10.6,29.70,WNW,289,7.0,12.0,74,0.00,,SKC,0.00,VWS V14.01,2013-02-19 00:27:00,
2013-02-18 18:32:00,17.3,10.8,29.70,NW,306,4.0,12.0,75,0.00,,SKC,0.00,VWS V14.01,2013-02-19 00:32:00,
2013-02-18 18:38:00,17.2,10.6,29.70,NNW,344,8.0,12.0,75,0.00,,SKC,0.00,VWS V14.01,2013-02-19 00:38:00,
2013-02-18 18:43:00,17.1,10.6,29.70,WNW,297,9.0,12.0,75,0.00,,SKC,0.00,VWS V14.01,2013-02-19 00:43:00,
2013-02-18 18:48:00,17.1,10.6,29.70,West,269,3.0,12.0,75,0.00,,SKC,0.00,VWS V14.01,2013-02-19 00:48:00,
2013-02-18 18:53:00,17.0,10.5,29.70,WNW,294,2.0,14.0,75,0.00,,SKC,0.00,VWS V14.01,2013-02-19 00:53:00,
2013-02-18 18:58:00,16.9,10.4,29.70,West,267,5.0,14.0,75,0.00,,SKC,0.00,VWS V14.01,2013-02-19 00:58:00,
2013-02-18 19:03:00,16.8,10.3,29.71,NW,309,6.0,6.0,75,0.00,,SKC,0.00,VWS V14.01,2013-02-19 01:03:00,
2013-02-18 19:08:00,16.8,10.6,29.71,NW,313,5.0,11.0,76,0.00,,SKC,0.00,VWS V14.01,2013-02-19 01:08:00,
2013-02-18 19:13:00,16.7,10.5,29.71,NW,318,5.0,11.0,76,0.00,,SKC,0.00,VWS V14.01,2013-02-19 01:13:00,
2013-02-18 19:18:00,16.6,10.4,29.71,NW,304,0.0,11.0,76,0.00,,SKC,0.00,VWS V14.01,2013-02-19 01:18:00,
2013-02-18 19:23:00,16.6,10.4,29.71,NW,309,4.0,11.0,76,0.00,,SKC,0.00,VWS V14.01,2013-02-19 01:23:00,
2013-02-18 19:28:00,16.6,10.4,29.71,NW,307,4.0,11.0,76,0.00,,SKC,0.00,VWS V14.01,2013-02-19 01:28:00,
2013-02-18 19:33:00,16.6,10.4,29.72,NW,311,4.0,7.0,76,0.00,,SKC,0.00,VWS V14.01,2013-02-19 01:33:00,
2013-02-18 19:38:00,16.6,10.4,29.72,WNW,288,4.0,9.0,76,0.00,,SKC,0.00,VWS V14.01,2013-02-19 01:38:00,
2013-02-18 19:43:00,16.6,10.1,29.72,West,259,5.0,11.0,75,0.00,,SKC,0.00,VWS V14.01,2013-02-19 01:43:00,
2013-02-18 19:48:00,16.6,10.1,29.72,WNW,298,5.0,12.0,75,0.00,,SKC,0.00,VWS V14.01,2013-02-19 01:48:00,
2013-02-18 19:53:00,16.6,10.4,29.73,NNW,346,5.0,12.0,76,0.00,,SKC,0.00,VWS V14.01,2013-02-19 01:53:00,
2013-02-18 19:58:00,16.4,9.9,29.73,NW,307,2.0,12.0,75,0.00,,SKC,0.00,VWS V14.01,2013-02-19 01:58:00,
2013-02-18 20:03:00,16.2,9.7,29.73,NNW,328,8.0,14.0,75,0.00,,SKC,0.00,VWS V14.01,2013-02-19 02:03:00,
2013-02-18 20:08:00,16.0,9.8,29.73,NW,318,6.0,14.0,76,0.00,,SKC,0.00,VWS V14.01,2013-02-19 02:08:00,
2013-02-18 20:13:00,15.9,9.7,29.73,NW,316,12.0,14.0,76,0.00,,SKC,0.00,VWS V14.01,2013-02-19 02:13:00,
2013-02-18 20:18:00,15.7,9.5,29.73,WNW,295,8.0,14.0,76,0.00,,SKC,0.00,VWS V14.01,2013-02-19 02:18:00,
2013-02-18 20:23:00,15.6,9.4,29.74,WNW,301,2.0,19.0,76,0.00,,SKC,0.00,VWS V14.01,2013-02-19 02:23:00,
2013-02-18 20:28:00,15.6,9.7,29.75,NW,308,11.0,19.0,77,0.00,,SKC,0.00,VWS V14.01,2013-02-19 02:28:00,
2013-02-18 20:33:00,15.5,9.0,29.75,NNE,22,6.0,16.0,75,0.00,,SKC,0.00,VWS V14.01,2013-02-19 02:33:00,
2013-02-18 20:39:00,15.3,8.8,29.74,NW,304,6.0,16.0,75,0.00,,SKC,0.00,VWS V14.01,2013-02-19 02:39:00,
2013-02-18 20:44:00,15.2,8.7,29.75,North,360,5.0,16.0,75,0.00,,SKC,0.00,VWS V14.01,2013-02-19 02:44:00,
2013-02-18 20:49:00,15.2,9.0,29.75,WNW,290,2.0,16.0,76,0.00,,SKC,0.00,VWS V14.01,2013-02-19 02:49:00,
2013-02-18 20:54:00,15.1,9.2,29.75,WNW,288,2.0,16.0,77,0.00,,SKC,0.00,VWS V14.01,2013-02-19 02:54:00,
2013-02-18 20:59:00,15.1,9.2,29.75,West,275,4.0,16.0,77,0.00,,SKC,0.00,VWS V14.01,2013-02-19 02:59:00,
2013-02-18 21:04:00,14.9,9.0,29.75,WNW,290,11.0,12.0,77,0.00,,SKC,0.00,VWS V14.01,2013-02-19 03:04:00,
2013-02-18 21:09:00,14.8,8.3,29.75,NNW,340,5.0,16.0,75,0.00,,SKC,0.00,VWS V14.01,2013-02-19 03:09:00,
2013-02-18 21:14:00,14.6,8.1,29.75,WNW,294,5.0,16.0,75,0.00,,SKC,0.00,VWS V14.01,2013-02-19 03:14:00,
2013-02-18 21:19:00,14.5,8.0,29.75,WNW,291,4.0,16.0,75,0.00,,SKC,0.00,VWS V14.01,2013-02-19 03:19:00,
2013-02-18 21:24:00,14.3,7.8,29.76,WNW,296,2.0,16.0,75,0.00,,SKC,0.00,VWS V14.01,2013-02-19 03:24:00,
2013-02-18 21:29:00,14.3,7.8,29.76,NNW,327,8.0,10.0,75,0.00,,SKC,0.00,VWS V14.01,2013-02-19 03:29:00,
2013-02-18 21:34:00,14.0,7.6,29.76,NW,317,6.0,12.0,75,0.00,,SKC,0.00,VWS V14.01,2013-02-19 03:34:00,
2013-02-18 21:39:00,13.9,7.4,29.76,NNE,20,9.0,18.0,75,0.00,,SKC,0.00,VWS V14.01,2013-02-19 03:39:00,
2013-02-18 21:44:00,13.8,7.7,29.76,WNW,288,4.0,18.0,76,0.00,,SKC,0.00,VWS V14.01,2013-02-19 03:44:00,
2013-02-18 21:49:00,13.6,7.5,29.76,WNW,291,6.0,18.0,76,0.00,,SKC,0.00,VWS V14.01,2013-02-19 03:49:00,
2013-02-18 21:54:00,13.4,6.7,29.76,NW,311,6.0,18.0,74,0.00,,SKC,0.00,VWS V14.01,2013-02-19 03:54:00,
2013-02-18 21:59:00,13.2,6.5,29.77,NW,324,2.0,4.0,74,0.00,,SKC,0.00,VWS V14.01,2013-02-19 03:59:00,
2013-02-18 22:04:00,13.0,6.3,29.77,WNW,296,9.0,12.0,74,0.00,,SKC,0.00,VWS V14.01,2013-02-19 04:04:00,
2013-02-18 22:09:00,12.8,6.1,29.77,WNW,288,7.0,12.0,74,0.00,,SKC,0.00,VWS V14.01,2013-02-19 04:09:00,
2013-02-18 22:14:00,12.7,6.0,29.77,NW,308,12.0,14.0,74,0.00,,SKC,0.00,VWS V14.01,2013-02-19 04:14:00,
2013-02-18 22:19:00,12.5,5.8,29.77,WNW,298,6.0,17.0,74,0.00,,SKC,0.00,VWS V14.01,2013-02-19 04:19:00,
2013-02-18 22:24:00,12.3,5.3,29.77,NNW,332,11.0,17.0,73,0.00,,SKC,0.00,VWS V14.01,2013-02-19 04:24:00,
2013-02-18 22:29:00,12.2,5.5,29.77,NW,319,10.0,13.0,74,0.00,,SKC,0.00,VWS V14.01,2013-02-19 04:29:00,
2013-02-18 22:34:00,12.0,5.0,29.77,NW,319,8.0,16.0,73,0.00,,SKC,0.00,VWS V14.01,2013-02-19 04:34:00,
2013-02-18 22:39:00,11.9,4.9,29.77,WNW,290,7.0,23.0,73,0.00,,SKC,0.00,VWS V14.01,2013-02-19 04:39:00,
2013-02-18 22:44:00,11.7,4.4,29.77,NW,304,13.0,23.0,72,0.00,,SKC,0.00,VWS V14.01,2013-02-19 04:44:00,
2013-02-18 22:49:00,11.5,4.2,29.78,WNW,295,5.0,23.0,72,0.00,,SKC,0.00,VWS V14.01,2013-02-19 04:49:00,
2013-02-18 22:54:00,11.3,4.1,29.78,WNW,282,9.0,23.0,72,0.00,,SKC,0.00,VWS V14.01,2013-02-19 04:54:00,
2013-02-18 22:59:00,11.0,3.8,29.77,NW,321,9.0,9.0,72,0.00,,SKC,0.00,VWS V14.01,2013-02-19 04:59:00,
2013-02-18 23:00:00,11.0,3.8,29.77,WNW,286,12.0,12.0,72,0.00,,SKC,0.00,VWS V14.01,2013-02-19 05:00:00,
2013-02-18 23:05:00,10.7,3.8,29.78,NW,304,12.0,17.0,73,0.00,,SKC,0.00,VWS V14.01,2013-02-19 05:05:00,
2013-02-18 23:10:00,10.5,3.6,29.78,NW,304,5.0,17.0,73,0.00,,SKC,0.00,VWS V14.01,2013-02-19 05:10:00,
2013-02-18 23:15:00,10.4,3.5,29.79,WNW,303,9.0,17.0,73,0.00,,SKC,0.00,VWS V14.01,2013-02-19 05:15:00,
2013-02-18 23:20:00,10.1,2.9,29.79,WNW,303,9.0,17.0,72,0.00,,SKC,0.00,VWS V14.01,2013-02-19 05:20:00,
2013-02-18 23:25:00,9.8,2.6,29.79,WNW,292,7.0,17.0,72,0.00,,SKC,0.00,VWS V14.01,2013-02-19 05:25:00,
2013-02-18 23:30:00,9.6,2.4,29.80,NW,315,4.0,7.0,72,0.00,,SKC,0.00,VWS V14.01,2013-02-19 05:30:00,
2013-02-18 23:35:00,9.5,2.3,29.80,NW,304,11.0,19.0,72,0.00,,SKC,0.00,VWS V14.01,2013-02-19 05:35:00,
2013-02-18 23:40:00,9.4,2.2,29.80,NW,319,2.0,19.0,72,0.00,,SKC,0.00,VWS V14.01,2013-02-19 05:40:00,
2013-02-18 23:45:00,9.4,2.5,29.80,WNW,302,8.0,19.0,73,0.00,,SKC,0.00,VWS V14.01,2013-02-19 05:45:00,
2013-02-18 23:50:00,9.4,2.5,29.80,NW,311,7.0,19.0,73,0.00,,SKC,0.00,VWS V14.01,2013-02-19 05:50:00,
2013-02-18 23:55:00,9.4,2.5,29.80,North,355,4.0,19.0,73,0.00,,SKC,0.00,VWS V14.01,2013-02-19 05:55:00,